Regional Weather Roundup
Issued by NWS Raleigh/Durham, NC

Current Version | Previous Version | Text Only | Print | Product List | Glossary On
Versions: 1 2 3 4 5 6 7 8 9 10 11 12 13 14 15 16 17 18 19 20 21 22 23 24 25 26 27 28 29 30 31 32 33 34 35 36 37 38 39 40 41 42 43 44 45 46 47 48 49 50
000
ASUS42 KRAH 241610
RWRRAH
NORTH CAROLINA WEATHER ROUNDUP
NATIONAL WEATHER SERVICE RALEIGH NC
1200 PM EDT THU JUL 24 2014

NOTE: "FAIR" INDICATES FEW OR NO CLOUDS BELOW 12,000 FEET WITH NO
SIGNIFICANT WEATHER AND/OR OBSTRUCTIONS TO VISIBILITY.

NCZ001-053-055-056-065-067-241700-
WESTERN NORTH CAROLINA

CITY           SKY/WX    TMP DP  RH WIND       PRES   REMARKS
ASHEVILLE      PTSUNNY   79  67  66 CALM      30.03S
JEFFERSON      CLOUDY    73  61  67 CALM      30.06F
MORGANTON      PTSUNNY   75  70  84 CALM      30.02S
HICKORY        CLOUDY    75  70  84 CALM      29.97F
RUTHERFORDTON  PTSUNNY   78  72  82 CALM      29.97F
MOUNT AIRY     PTSUNNY   82  70  67 CALM      29.95S
BOONE          PTSUNNY   73  62  67 W7        30.06F
$$

NCZ021-022-025-041-071-084-088-241700-
CENTRAL NORTH CAROLINA

CITY           SKY/WX    TMP DP  RH WIND       PRES   REMARKS
CHARLOTTE      PTSUNNY   83  68  60 NW3       29.96S
GREENSBORO     PTSUNNY   80  70  71 CALM      29.94S
WINSTON-SALEM  PTSUNNY   80  69  69 SW3       29.96S
RALEIGH-DURHAM PTSUNNY   81  71  71 E5        29.92F
FORT BRAGG     MOSUNNY   87  73  64 W9        29.89F
FAYETTEVILLE   MOSUNNY   88  72  58 SW15      29.90F
BURLINGTON     CLOUDY    80  70  71 SW3       29.93F
LAURINBURG     PTSUNNY   88  74  63 W10       29.92F HX  96
$$

NCZ011-015-027-028-043-044-047-080-103-241700-
NORTHEASTERN NORTH CAROLINA

CITY           SKY/WX    TMP DP  RH WIND       PRES   REMARKS
ROCKY MT-WILSO CLOUDY    79  74  84 N5        29.90S
GREENVILLE     TSTM      73  72  94 CALM      29.93R
WASHINGTON     CLOUDY    73  71  93 N14       29.90R
ELIZABETH CITY MOSUNNY   81  70  69 N9        29.88S
MANTEO         NOT AVBL
CAPE HATTERAS  SUNNY     85  78  80 SW10      29.89F HX  96
$$

NCZ078-087-090-091-093-098-101-241700-
SOUTHEASTERN NORTH CAROLINA

CITY           SKY/WX    TMP DP  RH WIND       PRES   REMARKS
LUMBERTON      MOSUNNY   88  75  65 W12       29.91F HX  97
GOLDSBORO      TSTM      75  75 100 NW9G21    29.88R FOG
KINSTON        RAIN      75  70  83 N8G25     29.91R VSB 1/2
KENANSVILLE    MOSUNNY   88  73  62 SW13G18   29.89F HX  95
NEW BERN       SUNNY     90  74  59 W10       29.89F HX  99
CHERRY POINT   NOT AVBL
BEAUFORT       PTSUNNY   85  79  82 SW18      29.90F HX  98
JACKSONVILLE   MOSUNNY   89  74  60 W13G21    29.89F HX  98
WILMINGTON     MOSUNNY   90  73  57 SW14      29.91F HX  98
$$



USA.gov is the U.S. government's official web portal to all federal, state and local government web resources and services.